map of AXA home
AXA - Airport
Location
City:  The Valley, Anguilla, Anguilla
Name:Clayton J. Lloyd International Airport
Old (Alt.):Anguilla Wallblake Airport
ICAO:TQPF
IATA:AXA

Details
Type:Airport (Aerodrome, Airfield)
Use:International (customs port of entry)
Latitude:1812'17"N (18.204722)
Longitude:6303'14"W (-63.053888)
Elevation:128 ft (39 m)
Variation:14.36W (WMM2015v2 magnetic declination)
-0.02 annual change
Runways:1
Longest:5463 × 98 ft (1665 × 30 m)

Time
Time Zone:UTC-4
Local Time:

Weather
METAR:TQPF 041400Z 11011KT 9999 SCT019 26/20 Q1017
TAF:TQPF 032300Z 0400/0424 10010KT 9999 SCT020

Related Locations
Nearby:
Farthest:WHM: 12260 mi / 19730 km
Wickham, WA, AU

Find:

   beyond  
but within

Other Information
Maps:
NOTAMs:
Links:
Sources:

  
  • flag of Anguilla
  

Airport Diagram

Airport diagram for AXA

Airport diagram PDF

Sectional Chart

Flight Planning
at skyvector.com

Satellite Image

Google Maps Satellite view

 

Copyright © 2004-2019 Karl L. Swartz. All rights reserved.
The Great Circle Mapper name and logo are trademarks of the Great Circle Mapper.
All other trademarks mentioned herein belong to their respective owners.
Please see credits for attibutions and further copyright information.

  Follow gcmap on Facebook Follow gcmap on Twitter GCmap on LinkedIn

hCard Microformat

Geo Microformat